| time (UTC) | temp F | wind direction | speed MPH | gust MPH | rain 1hr in | rain 24hr in | rain mn in | humidity % | barometer mb |
| 20260504214543 | 71 | 289 | 2.0 | 4.0 | 0.00 | 0.00 | 0.00 | 33 | 1006.0 |
| 20260504213036 | 72 | 275 | 2.0 | 6.0 | 0.00 | 0.00 | 0.00 | 31 | 1005.9 |
| 20260504211537 | 73 | 306 | 2.0 | 8.0 | 0.00 | 0.00 | 0.00 | 30 | 1006.0 |
| 20260504210043 | 72 | 326 | 5.0 | 12.0 | 0.00 | 0.00 | 0.00 | 30 | 1006.1 |
| 20260504204531 | 72 | 299 | 2.0 | 17.0 | 0.00 | 0.00 | 0.00 | 31 | 1005.9 |
| 20260504203031 | 73 | 297 | 2.0 | 10.0 | 0.00 | 0.00 | 0.00 | 30 | 1005.9 |
| 20260504201529 | 72 | 329 | 4.0 | 14.0 | 0.00 | 0.00 | 0.00 | 29 | 1006.1 |
| 20260504200033 | 72 | 275 | 3.0 | 13.0 | 0.00 | 0.00 | 0.00 | 29 | 1006.0 |
| 20260504194526 | 73 | 300 | 4.0 | 12.0 | 0.00 | 0.00 | 0.00 | 29 | 1006.1 |
| 20260504193023 | 72 | 285 | 1.0 | 14.0 | 0.00 | 0.00 | 0.00 | 29 | 1006.1 |
| 20260504191521 | 71 | 289 | 5.0 | 13.0 | 0.00 | 0.00 | 0.00 | 29 | 1006.2 |
| 20260504190020 | 71 | 344 | 5.0 | 13.0 | 0.00 | 0.00 | 0.00 | 30 | 1006.3 |
| 20260504184525 | 71 | 314 | 4.0 | 11.0 | 0.00 | 0.00 | 0.00 | 28 | 1006.7 |
| 20260504183020 | 69 | 340 | 3.0 | 12.0 | 0.00 | 0.00 | 0.00 | 30 | 1006.8 |
| 20260504181510 | 69 | 313 | 3.0 | 15.0 | 0.00 | 0.00 | 0.00 | 29 | 1006.9 |
| 20260504180008 | 69 | 269 | 3.0 | 18.0 | 0.00 | 0.00 | 0.00 | 29 | 1006.8 |
| 20260504174506 | 68 | 333 | 5.0 | 15.0 | 0.00 | 0.00 | 0.00 | 31 | 1006.8 |
| 20260504173004 | 68 | 332 | 6.0 | 13.0 | 0.00 | 0.00 | 0.00 | 30 | 1007.1 |
| 20260504171502 | 68 | 295 | 5.0 | 13.0 | 0.00 | 0.00 | 0.00 | 33 | 1007.1 |
| 20260504120129 | 52 | 299 | 2.0 | 7.0 | 0.00 | 0.02 | 0.00 | 53 | 1010.2 |
| 20260504081519 | 43 | 307 | 0.0 | 0.0 | 0.00 | 0.02 | 0.00 | 68 | 1010.1 |
| 20260504044543 | 37 | 298 | 0.0 | 0.0 | 0.00 | 0.02 | 0.00 | 72 | 1010.2 |
| 20260504043055 | 38 | 298 | 0.0 | 0.0 | 0.00 | 0.02 | 0.00 | 69 | 1010.0 |
| 20260504041537 | 38 | 298 | 0.0 | 0.0 | 0.00 | 0.02 | 0.00 | 68 | 1010.1 |
| 20260504040032 | 39 | 298 | 0.0 | 0.0 | 0.00 | 0.02 | 0.00 | 68 | 1009.9 |
| 20260504034530 | 39 | 298 | 0.0 | 0.0 | 0.00 | 0.02 | 0.02 | 67 | 1009.8 |
| 20260504033028 | 40 | 298 | 0.0 | 0.0 | 0.00 | 0.02 | 0.02 | 66 | 1009.8 |
| 20260504031528 | 40 | 298 | 0.0 | 1.0 | 0.00 | 0.02 | 0.02 | 66 | 1009.7 |
| 20260504030034 | 40 | 298 | 0.0 | 0.0 | 0.00 | 0.02 | 0.02 | 66 | 1009.7 |
| 20260504024528 | 40 | 298 | 0.0 | 0.0 | 0.00 | 0.02 | 0.02 | 65 | 1009.6 |
| 20260504023026 | 41 | 298 | 0.0 | 0.0 | 0.00 | 0.02 | 0.02 | 64 | 1009.7 |
| 20260504021525 | 42 | 298 | 0.0 | 1.0 | 0.00 | 0.02 | 0.02 | 63 | 1009.6 |
| 20260504020034 | 42 | 298 | 0.0 | 1.0 | 0.00 | 0.02 | 0.02 | 63 | 1009.6 |
| 20260504014624 | 43 | 298 | 0.0 | 0.0 | 0.00 | 0.02 | 0.02 | 61 | 1009.4 |
| 20260504013030 | 43 | 298 | 0.0 | 1.0 | 0.00 | 0.02 | 0.02 | 60 | 1009.2 |
| 20260504011523 | 43 | 298 | 0.0 | 0.0 | 0.00 | 0.02 | 0.02 | 57 | 1009.1 |
| 20260504010023 | 44 | 298 | 0.0 | 1.0 | 0.00 | 0.02 | 0.02 | 57 | 1009.0 |
| 20260504004536 | 45 | 298 | 0.0 | 1.0 | 0.00 | 0.02 | 0.02 | 57 | 1008.8 |
| 20260504003022 | 46 | 298 | 0.0 | 0.0 | 0.00 | 0.02 | 0.02 | 51 | 1008.7 |
| 20260504001531 | 48 | 298 | 0.0 | 0.0 | 0.00 | 0.02 | 0.02 | 48 | 1008.4 |
| 20260504000021 | 49 | 298 | 1.0 | 6.0 | 0.00 | 0.02 | 0.02 | 45 | 1008.4 |
| 20260503234523 | 49 | 328 | 2.0 | 8.0 | 0.00 | 0.02 | 0.02 | 45 | 1008.2 |
| 20260503233019 | 50 | 300 | 1.0 | 7.0 | 0.00 | 0.02 | 0.02 | 44 | 1008.0 |
| 20260503231521 | 50 | 281 | 4.0 | 9.0 | 0.00 | 0.02 | 0.02 | 43 | 1007.8 |
| 20260503230020 | 51 | 329 | 5.0 | 11.0 | 0.00 | 0.02 | 0.02 | 42 | 1007.7 |
| 20260503224618 | 51 | 317 | 4.0 | 11.0 | 0.00 | 0.02 | 0.02 | 41 | 1007.5 |
| 20260503223016 | 51 | 268 | 8.0 | 14.0 | 0.00 | 0.02 | 0.02 | 40 | 1007.2 |
| 20260503221517 | 51 | 339 | 4.0 | 11.0 | 0.00 | 0.02 | 0.02 | 41 | 1007.1 |
| 20260503220027 | 51 | 329 | 6.0 | 15.0 | 0.00 | 0.02 | 0.02 | 40 | 1006.9 |